Opa Locka, FL

3:53 PM EDT on September 21, 2017 (GMT -0400)
Opa Locka

Weather History for KOPF - April, 2013

Change the Weather History Date:

Sunday, April 7, 2013

  Actual Average Record
Temperature  
Mean Temperature 74 °F -  
Max Temperature 80 °F 81 °F 92 °F (1956)
Min Temperature 68 °F 64 °F 40 °F (1950)
Cooling Degree Days 8    
Growing Degree Days 24 (Base 50)    
Moisture  
Dew Point 63 °F    
Average Humidity 72    
Maximum Humidity 87    
Minimum Humidity 56    
Precipitation  
Precipitation 0.10 in - - ()
Sea Level Pressure  
Sea Level Pressure 30.10 in    
Wind  
Wind Speed 7 mph (East)    
Max Wind Speed 17 mph    
Max Gust Speed 22 mph    
Visibility 10 miles    
Events Rain    
Averages and records for this station are not official NWS values.
T = Trace of Precipitation, MM = Missing Value Source: NWS Daily Summary

Daily Weather History Graph

Daily Weather History Graph

Search for Another Location

Airport or City:

Trip Planner

Search our weather history database for the weather conditions in past years. The results will help you decide how hot, cold, wet, or windy it might be!

Date:

Astronomy

Apr. 07, 2013 Rise Set
Actual Time 7:05 AM EDT 7:40 PM EDT
Civil Twilight 6:42 AM EDT 8:04 PM EDT
Nautical Twilight 6:15 AM EDT 8:31 PM EDT
Astronomical Twilight 5:47 AM EDT 8:59 PM EDT
Moon 5:07 AM EDT (4/7) 5:23 PM EDT (4/7)
Length of Visible Light 13h 21m
Length of Day
12h 35m
Waning Crescent, 8% of the Moon is Illuminated
Apr 7
Waning Crescent
Apr 10
New
Apr 18
First Quarter
Apr 25
Full
May 2
Last Quarter

Hourly Weather History & Observations

Time (EDT) Temp. Dew Point Humidity Pressure Visibility Wind Dir Wind Speed Gust Speed Precip Events Conditions
12:53 AM 69.1 °F 61.0 °F 75% 30.09 in 10.0 mi East 5.8 mph - N/A   Partly Cloudy
1:53 AM 69.1 °F 61.0 °F 75% 30.07 in 10.0 mi East 8.1 mph - N/A   Clear
2:53 AM 69.1 °F 61.0 °F 75% 30.04 in 10.0 mi ESE 4.6 mph - N/A   Scattered Clouds
3:53 AM 68.0 °F 60.1 °F 76% 30.04 in 10.0 mi East 4.6 mph - N/A   Scattered Clouds
4:53 AM 69.1 °F 61.0 °F 75% 30.03 in 10.0 mi Calm Calm - N/A   Clear
5:53 AM 68.0 °F 60.1 °F 76% 30.04 in 10.0 mi East 3.5 mph - N/A   Clear
6:53 AM 68.0 °F 61.0 °F 78% 30.06 in 10.0 mi East 5.8 mph - N/A   Scattered Clouds
7:53 AM 70.0 °F 63.0 °F 78% 30.08 in 10.0 mi ENE 3.5 mph - N/A   Clear
8:53 AM 73.9 °F 63.0 °F 68% 30.10 in 10.0 mi ENE 6.9 mph - N/A   Mostly Cloudy
9:53 AM 78.1 °F 62.1 °F 58% 30.12 in 10.0 mi ENE 10.4 mph - N/A   Clear
10:53 AM 77.0 °F 64.0 °F 64% 30.14 in 10.0 mi East 12.7 mph - N/A   Mostly Cloudy
11:53 AM 73.9 °F 66.0 °F 76% 30.14 in 10.0 mi NE 10.4 mph - 0.00 in Rain Light Rain
12:12 PM 71.6 °F 66.2 °F 83% 30.15 in 9.0 mi East 10.4 mph - 0.01 in Rain Light Rain
12:41 PM 71.6 °F 66.2 °F 83% 30.14 in 10.0 mi NE 5.8 mph - 0.09 in Rain Light Rain
12:53 PM 71.1 °F 66.9 °F 87% 30.14 in 10.0 mi East 6.9 mph - 0.10 in Rain Light Rain
1:53 PM 75.0 °F 68.0 °F 79% 30.12 in 10.0 mi NE 6.9 mph - 0.00 in   Overcast
2:25 PM 75.2 °F 64.4 °F 69% 30.11 in 10.0 mi East 12.7 mph - N/A   Overcast
2:53 PM 79.0 °F 62.1 °F 56% 30.10 in 10.0 mi SE 12.7 mph - N/A   Mostly Cloudy
3:53 PM 77.0 °F 62.1 °F 60% 30.09 in 10.0 mi East 12.7 mph - N/A   Overcast
4:53 PM 75.9 °F 62.1 °F 62% 30.09 in 10.0 mi East 12.7 mph - N/A   Overcast
5:53 PM 75.9 °F 62.1 °F 62% 30.09 in 10.0 mi East 15.0 mph - N/A   Overcast
6:53 PM 73.9 °F 61.0 °F 64% 30.09 in 10.0 mi East 17.3 mph 21.9 mph N/A   Mostly Cloudy
7:53 PM 73.0 °F 60.1 °F 64% 30.09 in 10.0 mi East 10.4 mph - N/A   Clear
8:53 PM 71.1 °F 61.0 °F 70% 30.10 in 10.0 mi East 8.1 mph - N/A   Clear
9:53 PM 70.0 °F 60.1 °F 71% 30.11 in 10.0 mi East 6.9 mph - N/A   Clear
10:53 PM 69.1 °F 61.0 °F 75% 30.12 in 10.0 mi East 4.6 mph - N/A   Clear
11:53 PM 69.1 °F 61.0 °F 75% 30.11 in 10.0 mi ENE 4.6 mph - N/A   Clear